Regional Weather Roundup
Issued by NWS

Home | Current Version | Previous Version | Graphics & Text | Print | Product List | Glossary On
Versions: 1 2 3 4 5 6 7 8 9 10 11 12 13 14 15 16 17 18 19 20 21 22 23 24 25 26 27 28 29 30 31 32 33 34 35 36 37 38 39 40 41 42 43 44 45 46 47 48 49 50
000
ASUS43 KOAX 231002
RWRNE

WEATHER ROUNDUP FOR NEBRASKA
NATIONAL WEATHER SERVICE OMAHA NE
500 AM CDT WED JUL 23 2014

NOTES: SATELLITE DATA IS BEING USED TO AUGMENT CLOUD COVER ABOVE
       12000 FEET.
       "FAIR" INDICATES FEW OR NO CLOUDS BELOW 12,000 FEET WITH NO
       SIGNIFICANT WEATHER AND/OR OBSTRUCTIONS TO VISIBILITY.

  * THESE STATIONS DO NOT REPORT WEATHER SUCH AS RAIN...SNOW OR FOG.

NEZ001>004-019>022-054>056-231100-
NEBRASKA PANHANDLE

CITY           SKY/WX    TMP DP  RH WIND       PRES   REMARKS
SCOTTSBLUFF    CLEAR     67  64  90 E12       30.29S
ALLIANCE       CLEAR     64  60  87 E6        30.32R
CHADRON        LGT RAIN  69  63  81 E16G25    30.32F
KIMBALL        CLOUDY    67  63  85 SE17      30.30F
SIDNEY         CLOUDY    68  63  84 E13G21    30.32S
$$

NEZ057>060-069>072-079>082-231100-
SOUTHWEST NEBRASKA

CITY           SKY/WX    TMP DP  RH WIND       PRES   REMARKS
NORTH PLATTE   PTCLDY    68  64  87 E9        30.28R
IMPERIAL       MOCLDY    69  64  84 E13       30.28F
LEXINGTON      MOCLDY    68  66  93 CALM      30.27F
MCCOOK         PTCLDY    70  66  87 NE12      30.26S
OGALLALA       PTCLDY    64  58  82 E7        30.28S
$$

NEZ005>010-023>029-035>040-094-231100-
NORTH CENTRAL NEBRASKA

CITY           SKY/WX    TMP DP  RH WIND       PRES   REMARKS
VALENTINE      CLOUDY    69  60  73 CALM      30.31R
AINSWORTH      CLOUDY    65  60  86 SE5       30.26S
BROKEN BOW     CLEAR     64  62  93 SE5       30.29R
O`NEILL        MOCLDY    64  58  81 E8        30.25F
ORD            CLEAR     60  58  92 CALM      30.25R
THEDFORD       MOCLDY    67  64  89 SE7       30.28F
$$

NEZ041-046>049-061>064-073>077-083>087-231100-
SOUTH CENTRAL NEBRASKA

CITY           SKY/WX    TMP DP  RH WIND       PRES   REMARKS
GRAND ISLAND   PTCLDY    65  62  90 NE5       30.24R
AURORA         PTCLDY    66  64  93 NE7       30.23F
HASTINGS       MOCLDY    68  62  81 NE7       30.25R
HEBRON         PTCLDY    71  66  85 E3        30.20S
HOLDREGE       CLOUDY    70  65  86 E10       30.26R
KEARNEY *      MOCLDY    68  64  88 SE3       30.29R
YORK           PTCLDY    64  63  94 NE3       30.24R
$$

NEZ011>018-030>034-042>045-231100-
NORTHEAST NEBRASKA

CITY           SKY/WX    TMP DP  RH WIND       PRES   REMARKS
NORFOLK        CLEAR     64  57  78 NE7       30.24R
ALBION         PTCLDY    61  57  87 CALM      30.25R
BLAIR          CLEAR     64  42  43 N5        30.21R
COLUMBUS *     CLEAR     61  54  77 CALM      30.24R
FREMONT        CLEAR     64  59  84 CALM      30.21S
TEKAMAH        CLEAR     62  58  86 N7        30.20S
WAYNE          CLEAR     59  57  92 CALM      30.24R
$$

NEZ050>053-065>068-078-088>093-231100-
SOUTHEAST NEBRASKA

CITY           SKY/WX    TMP DP  RH WIND       PRES   REMARKS
LINCOLN        CLEAR     67  61  81 N6        30.20R
OMAHA EPPLEY   CLEAR     63  58  83 NW7       30.19R
BEATRICE       PTCLDY    65  63  91 CALM      30.19S
FALLS CITY     CLEAR     68  65  90 N6        30.15R
NEBRASKA CITY  CLEAR     66  60  82 NE8       30.18R
PLATTSMOUTH    CLEAR     66  57  72 N6        30.19R
$$

NEZ044-045-051>053-067-231100-
OMAHA AREA

CITY           SKY/WX    TMP DP  RH WIND       PRES   REMARKS
OMAHA EPPLEY   CLEAR     63  58  83 NW7       30.19R
BLAIR          CLEAR     64  42  43 N5        30.21R
FREMONT        CLEAR     64  59  84 CALM      30.21S
MILLARD        CLEAR     69  58  68 CALM      30.20R
OFFUTT AFB     CLEAR     67  60  79 N6        30.19R
PLATTSMOUTH    CLEAR     66  57  72 N6        30.19R
WAHOO          FAIR      63  59  87 N5        30.21R
$$


USA.gov is the U.S. government's official web portal to all federal, state and local government web resources and services.